Location: Kailua
(21.4020°N, 157.7390°W)
Time: 09:09:12
(UTC-10:00)

Cosmos 2297 Rocket - Visible Passes

Search period start: 27 March 2015 00:00
Search period end: 06 April 2015 00:00
Orbit: 841 x 843 km, 71.0° (Epoch: 25 March)

Date Brightness Start Highest point End Pass type
(mag) Time Alt. Az. Time Alt. Az. Time Alt. Az.
27 Mar 3.5 20:22:02 10° S 20:24:15 24° S 20:24:15 24° S visible
27 Mar5.522:17:09NNW22:17:09NNW22:06:22WSWvisible
28 Mar 2.3 20:07:03 10° S 20:12:26 49° ESE 20:17:53 10° NNE visible
28 Mar 4.9 21:53:41 10° W 21:56:47 14° WNW 21:59:33 10° NNW visible
29 Mar 2.4 19:52:04 10° S 19:57:24 46° ESE 20:02:47 10° NNE visible
29 Mar 4.8 21:38:20 10° W 21:41:42 15° WNW 21:44:45 10° NNW visible
30 Mar 2.5 19:37:05 10° S 19:42:21 43° ESE 19:47:41 10° NE visible
30 Mar 4.8 21:23:01 10° WSW 21:26:37 16° WNW 21:29:55 10° NNW visible
31 Mar 2.6 19:22:07 10° S 19:27:18 40° ESE 19:32:34 10° NE visible
31 Mar 4.8 21:07:43 10° WSW 21:11:31 17° WNW 21:15:03 10° NNW visible
01 Apr 2.7 19:07:09 10° S 19:12:16 37° ESE 19:17:27 10° NE visible
01 Apr 4.8 20:52:27 10° WSW 20:56:26 19° WNW 21:00:11 10° NNW visible
02 Apr 4.1 05:55:45 10° N 06:00:48 34° ENE 06:05:55 10° SE visible
02 Apr 4.7 20:37:12 10° WSW 20:41:21 20° WNW 20:45:17 10° NNW visible
03 Apr 4.2 05:40:46 10° N 05:45:44 32° ENE 05:50:46 10° SE visible
03 Apr 4.7 20:21:58 10° WSW 20:26:16 21° WNW 20:30:23 10° NNW visible
04 Apr 4.3 05:25:48 10° N 05:30:39 30° ENE 05:35:36 10° SE visible
04 Apr 4.7 20:06:45 10° WSW 20:11:11 23° WNW 20:15:27 10° NNW visible
05 Apr 4.3 05:10:50 10° N 05:15:35 28° ENE 05:20:26 10° SE visible
05 Apr 4.6 19:51:32 10° WSW 19:56:06 24° WNW 20:00:31 10° NNW visible
